OCI672 YBCS-YSSY

Flight info

Callsign OCI672
Flight time 2h 32m
Altitude 35000
Route N0455F350 CS Y177 AKROM Y153 ROKUU H652 BOREE
Aircraft A321/M-SDE3FGHIRWY/LB1

Departure

Time 2026-05-03 23:39
Airport Cairns International Airport (YBCS)

Arrival

Time 2026-05-04 02:11
Airport Sydney Kingsford Smith International Airport (YSSY)
Time Latitude Longitude Altitude Speed Heading
2026-05-03 23:17 -16.87780 145.75296 17 ft 0 kts 66°
2026-05-03 23:32 -16.87786 145.75280 16 ft 4 kts 69°
2026-05-03 23:33 -16.87795 145.75254 20 ft 4 kts 64°
2026-05-03 23:33 -16.87809 145.75233 19 ft 2 kts 37°
2026-05-03 23:33 -16.87829 145.75220 19 ft 4 kts 11°
2026-05-03 23:33 -16.87854 145.75221 20 ft 4 kts 339°
2026-05-03 23:34 -16.87859 145.75223 19 ft 0 kts 336°
2026-05-03 23:35 -16.87848 145.75218 17 ft 7 kts 336°
2026-05-03 23:35 -16.87796 145.75195 17 ft 9 kts 336°
2026-05-03 23:35 -16.87739 145.75168 16 ft 9 kts 335°
2026-05-03 23:36 -16.87679 145.75140 16 ft 10 kts 335°
2026-05-03 23:36 -16.87656 145.75081 16 ft 10 kts 258°
2026-05-03 23:36 -16.87627 145.75026 16 ft 10 kts 333°
2026-05-03 23:36 -16.87564 145.74997 16 ft 10 kts 336°
2026-05-03 23:37 -16.87497 145.74966 17 ft 11 kts 336°
2026-05-03 23:37 -16.87425 145.74934 16 ft 12 kts 336°
2026-05-03 23:37 -16.87348 145.74899 16 ft 12 kts 337°
2026-05-03 23:37 -16.87269 145.74864 16 ft 11 kts 337°
2026-05-03 23:38 -16.87191 145.74830 16 ft 16 kts 336°
2026-05-03 23:38 -16.87082 145.74777 17 ft 17 kts 327°
2026-05-03 23:38 -16.87065 145.74669 15 ft 16 kts 243°
2026-05-03 23:38 -16.87126 145.74605 14 ft 6 kts 180°
2026-05-03 23:39 -16.87237 145.74651 16 ft 45 kts 156°
2026-05-03 23:39 -16.87728 145.74875 18 ft 109 kts 156°
2026-05-03 23:39 -16.88606 145.75275 47 ft 157 kts 156°
2026-05-03 23:39 -16.89550 145.75779 680 ft 152 kts 135°
2026-05-03 23:40 -16.89891 145.76848 1023 ft 171 kts 86°
2026-05-03 23:40 -16.89572 145.78034 1690 ft 173 kts 59°
2026-05-03 23:40 -16.88658 145.78857 2255 ft 177 kts 43°
2026-05-03 23:40 -16.87676 145.79732 2487 ft 196 kts 44°
2026-05-03 23:41 -16.86617 145.80689 2873 ft 205 kts 43°
2026-05-03 23:41 -16.85478 145.81700 3049 ft 225 kts 46°
2026-05-03 23:41 -16.84590 145.83101 3167 ft 242 kts 76°
2026-05-03 23:41 -16.84378 145.84854 3563 ft 253 kts 90°
2026-05-03 23:42 -16.84323 145.86739 4256 ft 256 kts 94°
2026-05-03 23:42 -16.84881 145.88478 4934 ft 258 kts 128°
2026-05-03 23:42 -16.85734 145.89346 5385 ft 260 kts 142°
2026-05-03 23:42 -16.87250 145.90336 6070 ft 264 kts 151°
2026-05-03 23:43 -16.89479 145.91486 6931 ft 269 kts 153°
2026-05-03 23:43 -16.91171 145.92343 7538 ft 273 kts 153°
2026-05-03 23:43 -16.92880 145.93251 8110 ft 278 kts 152°
2026-05-03 23:43 -16.94608 145.94216 8637 ft 284 kts 151°
2026-05-03 23:44 -16.96351 145.95229 9154 ft 290 kts 151°
2026-05-03 23:44 -16.97549 145.95940 9487 ft 295 kts 151°
2026-05-03 23:44 -16.99937 145.97376 10105 ft 303 kts 151°
2026-05-03 23:44 -17.01185 145.98131 10260 ft 314 kts 151°
2026-05-03 23:45 -17.03102 145.99292 10383 ft 332 kts 150°
2026-05-03 23:45 -17.05152 146.00535 10506 ft 349 kts 150°
2026-05-03 23:45 -17.07294 146.01835 10729 ft 361 kts 150°
2026-05-03 23:45 -17.09488 146.03166 11145 ft 366 kts 150°
2026-05-03 23:46 -17.11703 146.04509 11616 ft 370 kts 150°
2026-05-03 23:46 -17.13936 146.05863 12076 ft 373 kts 150°
2026-05-03 23:46 -17.16193 146.07231 12535 ft 376 kts 150°
2026-05-03 23:46 -17.18468 146.08608 12997 ft 379 kts 150°
2026-05-03 23:47 -17.20755 146.09995 13450 ft 382 kts 150°
2026-05-03 23:47 -17.23064 146.11396 13894 ft 385 kts 150°
2026-05-03 23:47 -17.25391 146.12808 14295 ft 387 kts 150°
2026-05-03 23:47 -17.27729 146.14228 14699 ft 390 kts 150°
2026-05-03 23:48 -17.30085 146.15660 15117 ft 392 kts 150°
2026-05-03 23:48 -17.32422 146.17079 15524 ft 395 kts 149°
2026-05-03 23:48 -17.34805 146.18525 15943 ft 397 kts 149°
2026-05-03 23:48 -17.37199 146.19979 16361 ft 399 kts 149°
2026-05-03 23:49 -17.39614 146.21445 16784 ft 401 kts 149°
2026-05-03 23:49 -17.42040 146.22920 17202 ft 404 kts 149°
2026-05-03 23:49 -17.44482 146.24407 17622 ft 406 kts 149°
2026-05-03 23:49 -17.46930 146.25899 18048 ft 409 kts 149°
2026-05-03 23:50 -17.49399 146.27403 18455 ft 411 kts 149°
2026-05-03 23:50 -17.51883 146.28913 18819 ft 414 kts 149°
2026-05-03 23:50 -17.54354 146.30412 19178 ft 417 kts 149°
2026-05-03 23:50 -17.56902 146.31960 19544 ft 419 kts 150°
2026-05-03 23:51 -17.59405 146.33483 19905 ft 422 kts 150°
2026-05-03 23:51 -17.61952 146.35037 20281 ft 424 kts 150°
2026-05-03 23:51 -17.64509 146.36598 20673 ft 427 kts 150°
2026-05-03 23:51 -17.67079 146.38169 21043 ft 429 kts 150°
2026-05-03 23:52 -17.69672 146.39750 21405 ft 432 kts 150°
2026-05-03 23:52 -17.72275 146.41336 21749 ft 434 kts 150°
2026-05-03 23:52 -17.74901 146.42939 22084 ft 437 kts 150°
2026-05-03 23:52 -17.77539 146.44552 22411 ft 440 kts 150°
2026-05-03 23:53 -17.80186 146.46172 22735 ft 442 kts 150°
2026-05-03 23:53 -17.82853 146.47805 23050 ft 445 kts 151°
2026-05-03 23:53 -17.85502 146.49425 23350 ft 447 kts 151°
2026-05-03 23:53 -17.88202 146.51075 23650 ft 449 kts 151°
2026-05-03 23:54 -17.90913 146.52731 23909 ft 452 kts 151°
2026-05-03 23:54 -17.93640 146.54398 24167 ft 454 kts 151°
2026-05-03 23:54 -17.96373 146.56072 24433 ft 455 kts 151°
2026-05-03 23:54 -17.99116 146.57756 24687 ft 457 kts 151°
2026-05-03 23:55 -18.01876 146.59449 24938 ft 459 kts 151°
2026-05-03 23:55 -18.04643 146.61144 25188 ft 461 kts 151°
2026-05-03 23:55 -18.07423 146.62847 25444 ft 463 kts 151°
2026-05-03 23:55 -18.10213 146.64556 25695 ft 465 kts 152°
2026-05-03 23:56 -18.13008 146.66268 25944 ft 466 kts 152°
2026-05-03 23:56 -18.15785 146.67969 26191 ft 468 kts 152°
2026-05-03 23:56 -18.18609 146.69700 26438 ft 470 kts 152°
2026-05-03 23:56 -18.21433 146.71433 26687 ft 472 kts 152°
2026-05-03 23:57 -18.24274 146.73180 26936 ft 473 kts 152°
2026-05-03 23:57 -18.27124 146.74935 27185 ft 475 kts 152°
2026-05-03 23:57 -18.29982 146.76693 27432 ft 476 kts 152°
2026-05-03 23:57 -18.32856 146.78456 27673 ft 478 kts 153°
2026-05-03 23:58 -18.35849 146.79973 27899 ft 477 kts 161°
2026-05-03 23:58 -18.39009 146.81002 28130 ft 475 kts 169°
2026-05-03 23:58 -18.42229 146.81853 28352 ft 477 kts 169°
2026-05-03 23:58 -18.45450 146.82699 28579 ft 478 kts 169°
2026-05-03 23:59 -18.48650 146.83539 28815 ft 480 kts 169°
2026-05-03 23:59 -18.51896 146.84394 29027 ft 481 kts 169°
2026-05-03 23:59 -18.55157 146.85256 29245 ft 483 kts 169°
2026-05-03 23:59 -18.58426 146.86125 29458 ft 485 kts 169°
2026-05-04 00:00 -18.61704 146.86999 29685 ft 486 kts 169°
2026-05-04 00:00 -18.64997 146.87876 29913 ft 488 kts 169°
2026-05-04 00:00 -18.68291 146.88750 30129 ft 489 kts 169°
2026-05-04 00:00 -18.71600 146.89628 30315 ft 491 kts 169°
2026-05-04 00:01 -18.74913 146.90509 30550 ft 491 kts 169°
2026-05-04 00:01 -18.78178 146.91376 30822 ft 490 kts 169°
2026-05-04 00:01 -18.81482 146.92257 31089 ft 489 kts 169°
2026-05-04 00:01 -18.84787 146.93141 31355 ft 489 kts 169°
2026-05-04 00:02 -18.88088 146.94025 31627 ft 488 kts 169°
2026-05-04 00:02 -18.91380 146.94905 31908 ft 487 kts 169°
2026-05-04 00:02 -18.94674 146.95782 32181 ft 487 kts 169°
2026-05-04 00:02 -18.97209 146.96456 32393 ft 486 kts 169°
2026-05-04 00:03 -19.00490 146.97329 32684 ft 485 kts 169°
2026-05-04 00:03 -19.03760 146.98201 32978 ft 484 kts 170°
2026-05-04 00:03 -19.07022 146.99073 33259 ft 483 kts 170°
2026-05-04 00:03 -19.09963 146.99860 33513 ft 482 kts 170°
2026-05-04 00:04 -19.13214 147.00731 33800 ft 481 kts 170°
2026-05-04 00:04 -19.16465 147.01599 34085 ft 480 kts 170°
2026-05-04 00:04 -19.19664 147.02453 34325 ft 480 kts 170°
2026-05-04 00:04 -19.22939 147.03327 34552 ft 479 kts 170°
2026-05-04 00:05 -19.26131 147.04181 34769 ft 479 kts 170°
2026-05-04 00:05 -19.29359 147.05047 34977 ft 479 kts 171°
2026-05-04 00:05 -19.35831 147.06787 35095 ft 478 kts 171°
2026-05-04 00:06 -19.42274 147.08515 35096 ft 477 kts 171°
2026-05-04 00:06 -19.48707 147.10235 35095 ft 477 kts 171°
2026-05-04 00:07 -19.55112 147.11947 35098 ft 477 kts 171°
2026-05-04 00:07 -19.61548 147.13680 35104 ft 477 kts 171°
2026-05-04 00:08 -19.67993 147.15419 35107 ft 478 kts 171°
2026-05-04 00:08 -19.74442 147.17150 35111 ft 478 kts 171°
2026-05-04 00:09 -19.80899 147.18890 35115 ft 478 kts 171°
2026-05-04 00:09 -19.87322 147.20619 35115 ft 479 kts 171°
2026-05-04 00:10 -19.93796 147.22369 35120 ft 479 kts 171°
2026-05-04 00:10 -20.00225 147.24103 35123 ft 479 kts 171°
2026-05-04 00:11 -20.06692 147.25854 35125 ft 479 kts 171°
2026-05-04 00:11 -20.13157 147.27607 35124 ft 479 kts 171°
2026-05-04 00:12 -20.19628 147.29359 35128 ft 480 kts 171°
2026-05-04 00:12 -20.26105 147.31115 35130 ft 480 kts 171°
2026-05-04 00:13 -20.32537 147.32859 35129 ft 480 kts 171°
2026-05-04 00:13 -20.39013 147.34617 35128 ft 480 kts 171°
2026-05-04 00:14 -20.45496 147.36383 35132 ft 480 kts 171°
2026-05-04 00:14 -20.51210 147.37933 35131 ft 480 kts 171°
2026-05-04 00:15 -20.57683 147.39689 35134 ft 480 kts 171°
2026-05-04 00:15 -20.63844 147.41367 35130 ft 480 kts 171°
2026-05-04 00:16 -20.70321 147.43143 35129 ft 481 kts 171°
2026-05-04 00:16 -20.76807 147.44907 35128 ft 481 kts 171°
2026-05-04 00:17 -20.83296 147.46675 35136 ft 481 kts 171°
2026-05-04 00:17 -20.89784 147.48453 35134 ft 481 kts 171°
2026-05-04 00:18 -20.96264 147.50231 35136 ft 481 kts 171°
2026-05-04 00:18 -21.02709 147.51997 35134 ft 481 kts 171°
2026-05-04 00:19 -21.09207 147.53778 35137 ft 481 kts 172°
2026-05-04 00:19 -21.15700 147.55555 35138 ft 481 kts 172°
2026-05-04 00:20 -21.22200 147.57343 35133 ft 482 kts 171°
2026-05-04 00:20 -21.28660 147.59117 35138 ft 482 kts 172°
2026-05-04 00:21 -21.34693 147.60773 35137 ft 482 kts 172°
2026-05-04 00:21 -21.40942 147.62498 35140 ft 482 kts 171°
2026-05-04 00:22 -21.47443 147.64295 35142 ft 482 kts 171°
2026-05-04 00:22 -21.53591 147.65983 35143 ft 482 kts 172°
2026-05-04 00:23 -21.60106 147.67774 35146 ft 483 kts 172°
2026-05-04 00:23 -21.66624 147.69580 35144 ft 483 kts 171°
2026-05-04 00:24 -21.73139 147.71390 35145 ft 483 kts 172°
2026-05-04 00:24 -21.79618 147.73179 35147 ft 483 kts 171°
2026-05-04 00:25 -21.86140 147.74987 35145 ft 484 kts 172°
2026-05-04 00:25 -21.92670 147.76801 35146 ft 484 kts 172°
2026-05-04 00:26 -21.99199 147.78610 35148 ft 484 kts 172°
2026-05-04 00:26 -22.05738 147.80419 35150 ft 485 kts 172°
2026-05-04 00:27 -22.12227 147.82230 35154 ft 485 kts 172°
2026-05-04 00:27 -22.18768 147.84052 35152 ft 485 kts 172°
2026-05-04 00:28 -22.25309 147.85879 35158 ft 485 kts 172°
2026-05-04 00:28 -22.31856 147.87705 35155 ft 486 kts 172°
2026-05-04 00:29 -22.38401 147.89528 35155 ft 486 kts 172°
2026-05-04 00:29 -22.44946 147.91348 35160 ft 486 kts 172°
2026-05-04 00:30 -22.51491 147.93179 35158 ft 486 kts 172°
2026-05-04 00:30 -22.58006 147.95008 35163 ft 487 kts 172°
2026-05-04 00:31 -22.63465 147.96543 35155 ft 487 kts 172°
2026-05-04 00:31 -22.70032 147.98395 35163 ft 487 kts 172°
2026-05-04 00:32 -22.76589 148.00243 35156 ft 487 kts 172°
2026-05-04 00:32 -22.83117 148.02068 35156 ft 487 kts 172°
2026-05-04 00:33 -22.92977 148.04836 35159 ft 487 kts 172°
2026-05-04 00:34 -22.99491 148.06677 35158 ft 487 kts 172°
2026-05-04 00:34 -23.06055 148.08528 35160 ft 487 kts 172°
2026-05-04 00:35 -23.12618 148.10379 35159 ft 487 kts 172°
2026-05-04 00:35 -23.19182 148.12236 35158 ft 487 kts 172°
2026-05-04 00:36 -23.25757 148.14092 35160 ft 487 kts 172°
2026-05-04 00:36 -23.32319 148.15945 35161 ft 488 kts 172°
2026-05-04 00:37 -23.38849 148.17801 35157 ft 488 kts 172°
2026-05-04 00:37 -23.45457 148.19682 35157 ft 488 kts 172°
2026-05-04 00:38 -23.51988 148.21539 35158 ft 488 kts 172°
2026-05-04 00:38 -23.58568 148.23406 35159 ft 488 kts 172°
2026-05-04 00:39 -23.65152 148.25288 35154 ft 489 kts 172°
2026-05-04 00:39 -23.71742 148.27169 35156 ft 489 kts 172°
2026-05-04 00:40 -23.78328 148.29048 35155 ft 489 kts 172°
2026-05-04 00:40 -23.84914 148.30931 35157 ft 489 kts 173°
2026-05-04 00:41 -23.91511 148.32806 35160 ft 490 kts 173°
2026-05-04 00:41 -23.98057 148.34686 35161 ft 490 kts 172°
2026-05-04 00:42 -24.04657 148.36585 35158 ft 490 kts 173°
2026-05-04 00:42 -24.11256 148.38471 35162 ft 490 kts 173°
2026-05-04 00:43 -24.17858 148.40356 35157 ft 491 kts 173°
2026-05-04 00:43 -24.24470 148.42257 35159 ft 491 kts 173°
2026-05-04 00:44 -24.31085 148.44162 35162 ft 491 kts 173°
2026-05-04 00:44 -24.37699 148.46072 35160 ft 491 kts 173°
2026-05-04 00:45 -24.44317 148.47980 35161 ft 492 kts 173°
2026-05-04 00:45 -24.50904 148.49880 35158 ft 492 kts 173°
2026-05-04 00:46 -24.57527 148.51801 35163 ft 492 kts 173°
2026-05-04 00:46 -24.64164 148.53722 35161 ft 493 kts 173°
2026-05-04 00:47 -24.70799 148.55640 35162 ft 493 kts 173°
2026-05-04 00:47 -24.77428 148.57569 35167 ft 493 kts 173°
2026-05-04 00:48 -24.84059 148.59497 35163 ft 493 kts 173°
2026-05-04 00:48 -24.90697 148.61419 35163 ft 493 kts 173°
2026-05-04 00:49 -24.97338 148.63355 35163 ft 493 kts 173°
2026-05-04 00:49 -25.03943 148.65284 35163 ft 493 kts 173°
2026-05-04 00:50 -25.10588 148.67217 35163 ft 494 kts 173°
2026-05-04 00:50 -25.17243 148.69152 35162 ft 494 kts 173°
2026-05-04 00:51 -25.23888 148.71092 35162 ft 494 kts 173°
2026-05-04 00:51 -25.30542 148.73035 35157 ft 494 kts 173°
2026-05-04 00:52 -25.37153 148.74973 35160 ft 494 kts 173°
2026-05-04 00:52 -25.43802 148.76926 35156 ft 495 kts 173°
2026-05-04 00:53 -25.50456 148.78895 35156 ft 495 kts 173°
2026-05-04 00:53 -25.57120 148.80857 35162 ft 495 kts 174°
2026-05-04 00:54 -25.63747 148.82786 35165 ft 495 kts 173°
2026-05-04 00:54 -25.70427 148.84753 35160 ft 495 kts 173°
2026-05-04 00:55 -25.77082 148.86731 35161 ft 496 kts 173°
2026-05-04 00:55 -25.83747 148.88698 35161 ft 496 kts 174°
2026-05-04 00:56 -25.90421 148.90671 35158 ft 496 kts 173°
2026-05-04 00:56 -25.97096 148.92649 35157 ft 496 kts 174°
2026-05-04 00:57 -26.03783 148.94634 35156 ft 497 kts 174°
2026-05-04 00:57 -26.10419 148.96598 35157 ft 497 kts 174°
2026-05-04 00:58 -26.17110 148.98572 35157 ft 497 kts 174°
2026-05-04 00:58 -26.23796 149.00556 35156 ft 497 kts 173°
2026-05-04 00:59 -26.30478 149.02561 35158 ft 498 kts 174°
2026-05-04 00:59 -26.37176 149.04561 35157 ft 498 kts 174°
2026-05-04 01:00 -26.43871 149.06551 35161 ft 498 kts 174°
2026-05-04 01:00 -26.50563 149.08595 35163 ft 500 kts 172°
2026-05-04 01:01 -26.57232 149.10871 35150 ft 502 kts 171°
2026-05-04 01:01 -26.63900 149.13229 35152 ft 502 kts 171°
2026-05-04 01:02 -26.70576 149.15550 35155 ft 502 kts 172°
2026-05-04 01:02 -26.77218 149.17822 35156 ft 502 kts 172°
2026-05-04 01:03 -26.83897 149.20096 35157 ft 502 kts 172°
2026-05-04 01:03 -26.90579 149.22380 35153 ft 502 kts 172°
2026-05-04 01:04 -26.97260 149.24687 35155 ft 502 kts 172°
2026-05-04 01:04 -27.03941 149.26997 35156 ft 502 kts 172°
2026-05-04 01:05 -27.10627 149.29312 35156 ft 503 kts 172°
2026-05-04 01:05 -27.17322 149.31619 35156 ft 502 kts 172°
2026-05-04 01:06 -27.23972 149.33902 35161 ft 503 kts 172°
2026-05-04 01:06 -27.30663 149.36218 35156 ft 503 kts 172°
2026-05-04 01:07 -27.37352 149.38537 35153 ft 503 kts 172°
2026-05-04 01:07 -27.44048 149.40860 35153 ft 503 kts 172°
2026-05-04 01:08 -27.50748 149.43184 35156 ft 503 kts 172°
2026-05-04 01:08 -27.57447 149.45517 35158 ft 504 kts 172°
2026-05-04 01:09 -27.64150 149.47855 35155 ft 504 kts 172°
2026-05-04 01:09 -27.70850 149.50191 35154 ft 504 kts 172°
2026-05-04 01:10 -27.77510 149.52516 35156 ft 504 kts 172°
2026-05-04 01:10 -27.84205 149.54857 35156 ft 504 kts 172°
2026-05-04 01:11 -27.90914 149.57205 35159 ft 504 kts 172°
2026-05-04 01:11 -27.97609 149.59552 35156 ft 504 kts 172°
2026-05-04 01:12 -28.04307 149.61898 35153 ft 504 kts 172°
2026-05-04 01:12 -28.11002 149.64258 35154 ft 504 kts 172°
2026-05-04 01:13 -28.17694 149.66619 35157 ft 504 kts 172°
2026-05-04 01:13 -28.24359 149.68771 35156 ft 500 kts 175°
2026-05-04 01:14 -28.31105 149.70653 35157 ft 498 kts 176°
2026-05-04 01:14 -28.37839 149.72501 35156 ft 498 kts 176°
2026-05-04 01:15 -28.44582 149.74447 35158 ft 499 kts 175°
2026-05-04 01:15 -28.51313 149.76438 35158 ft 499 kts 175°
2026-05-04 01:16 -28.58035 149.78413 35154 ft 499 kts 175°
2026-05-04 01:16 -28.64765 149.80377 35151 ft 499 kts 175°
2026-05-04 01:17 -28.71451 149.82329 35163 ft 499 kts 175°
2026-05-04 01:17 -28.78180 149.84302 35160 ft 499 kts 175°
2026-05-04 01:18 -28.84906 149.86291 35156 ft 499 kts 175°
2026-05-04 01:18 -28.90495 149.87938 35157 ft 499 kts 175°
2026-05-04 01:19 -28.98367 149.90251 35159 ft 499 kts 175°
2026-05-04 01:19 -29.03960 149.91899 35155 ft 499 kts 175°
2026-05-04 01:20 -29.10678 149.93874 35157 ft 499 kts 175°
2026-05-04 01:20 -29.16840 149.95700 35155 ft 499 kts 175°
2026-05-04 01:21 -29.23377 149.97637 35155 ft 498 kts 175°
2026-05-04 01:21 -29.29670 149.99498 35157 ft 498 kts 175°
2026-05-04 01:22 -29.36439 150.01510 35153 ft 498 kts 175°
2026-05-04 01:22 -29.43144 150.03505 35156 ft 498 kts 175°
2026-05-04 01:23 -29.49844 150.05501 35156 ft 498 kts 175°
2026-05-04 01:23 -29.56549 150.07496 35156 ft 498 kts 175°
2026-05-04 01:24 -29.62477 150.09267 35156 ft 498 kts 175°
2026-05-04 01:24 -29.69182 150.11273 35148 ft 497 kts 175°
2026-05-04 01:25 -29.75567 150.13177 35152 ft 497 kts 175°
2026-05-04 01:25 -29.82272 150.15181 35154 ft 497 kts 175°
2026-05-04 01:26 -29.88972 150.17194 35152 ft 498 kts 175°
2026-05-04 01:26 -29.95676 150.19218 35156 ft 498 kts 175°
2026-05-04 01:27 -30.02351 150.21226 35153 ft 498 kts 175°
2026-05-04 01:27 -30.09059 150.23248 35152 ft 498 kts 176°
2026-05-04 01:28 -30.15766 150.25274 35146 ft 498 kts 176°
2026-05-04 01:28 -30.22497 150.27300 35150 ft 499 kts 176°
2026-05-04 01:29 -30.29176 150.29318 35144 ft 499 kts 176°
2026-05-04 01:29 -30.35891 150.31354 35139 ft 499 kts 176°
2026-05-04 01:30 -30.42623 150.33400 35138 ft 500 kts 176°
2026-05-04 01:30 -30.49354 150.35448 35138 ft 500 kts 176°
2026-05-04 01:31 -30.56098 150.37505 35134 ft 500 kts 176°
2026-05-04 01:31 -30.62835 150.39554 35128 ft 500 kts 176°
2026-05-04 01:32 -30.69521 150.41590 35131 ft 500 kts 176°
2026-05-04 01:32 -30.76252 150.43648 35128 ft 500 kts 176°
2026-05-04 01:33 -30.82995 150.45718 35140 ft 501 kts 176°
2026-05-04 01:33 -30.89752 150.47789 35132 ft 501 kts 176°
2026-05-04 01:34 -30.96455 150.49840 35140 ft 501 kts 176°
2026-05-04 01:34 -31.03209 150.51913 35141 ft 502 kts 176°
2026-05-04 01:35 -31.09968 150.53994 35149 ft 502 kts 176°
2026-05-04 01:35 -31.16725 150.56077 35153 ft 502 kts 176°
2026-05-04 01:36 -31.23491 150.58172 35149 ft 503 kts 176°
2026-05-04 01:36 -31.30220 150.60253 35138 ft 503 kts 176°
2026-05-04 01:37 -31.36992 150.62348 35133 ft 504 kts 176°
2026-05-04 01:37 -31.43778 150.64454 35127 ft 504 kts 176°
2026-05-04 01:38 -31.50561 150.66560 35127 ft 504 kts 176°
2026-05-04 01:38 -31.57350 150.68672 35125 ft 505 kts 176°
2026-05-04 01:39 -31.64142 150.70787 35122 ft 505 kts 176°
2026-05-04 01:39 -31.70948 150.72907 35121 ft 505 kts 176°
2026-05-04 01:40 -31.77711 150.75012 35121 ft 506 kts 176°
2026-05-04 01:40 -31.84522 150.77135 35112 ft 506 kts 176°
2026-05-04 01:41 -31.91324 150.79285 34954 ft 504 kts 175°
2026-05-04 01:41 -31.94700 150.80354 34715 ft 501 kts 176°
2026-05-04 01:41 -31.98065 150.81413 34486 ft 499 kts 176°
2026-05-04 01:41 -32.01412 150.82463 34255 ft 497 kts 176°
2026-05-04 01:42 -32.04752 150.83341 34019 ft 484 kts 183°
2026-05-04 01:42 -32.08069 150.83920 33575 ft 480 kts 183°
2026-05-04 01:42 -32.11364 150.84491 33090 ft 477 kts 182°
2026-05-04 01:42 -32.14638 150.85060 32588 ft 475 kts 182°
2026-05-04 01:43 -32.17906 150.85633 32097 ft 473 kts 181°
2026-05-04 01:43 -32.21113 150.86197 31608 ft 471 kts 181°
2026-05-04 01:43 -32.24354 150.86768 31116 ft 469 kts 180°
2026-05-04 01:43 -32.27579 150.87337 30629 ft 468 kts 180°
2026-05-04 01:44 -32.30800 150.87900 30142 ft 467 kts 180°
2026-05-04 01:44 -32.34010 150.88460 29619 ft 465 kts 179°
2026-05-04 01:44 -32.37196 150.89020 29156 ft 461 kts 179°
2026-05-04 01:44 -32.40356 150.89575 28697 ft 458 kts 179°
2026-05-04 01:45 -32.43500 150.90126 28252 ft 454 kts 179°
2026-05-04 01:45 -32.46612 150.90675 27798 ft 451 kts 179°
2026-05-04 01:45 -32.52777 150.91769 26923 ft 444 kts 178°
2026-05-04 01:46 -32.55819 150.92304 26495 ft 441 kts 178°
2026-05-04 01:46 -32.58847 150.92835 26068 ft 438 kts 177°
2026-05-04 01:46 -32.61857 150.93366 25628 ft 436 kts 178°
2026-05-04 01:46 -32.64816 150.93887 25192 ft 434 kts 177°
2026-05-04 01:47 -32.67800 150.94417 24746 ft 433 kts 177°
2026-05-04 01:47 -32.70769 150.94945 24349 ft 429 kts 177°
2026-05-04 01:47 -32.73713 150.95470 23897 ft 429 kts 176°
2026-05-04 01:47 -32.76640 150.95989 23650 ft 422 kts 176°
2026-05-04 01:48 -32.79529 150.96505 23153 ft 416 kts 176°
2026-05-04 01:48 -32.81842 150.96918 22504 ft 412 kts 176°
2026-05-04 01:48 -32.84532 150.97408 22041 ft 399 kts 175°
2026-05-04 01:48 -32.87235 150.97897 21603 ft 386 kts 176°
2026-05-04 01:49 -32.89841 150.98361 21177 ft 373 kts 176°
2026-05-04 01:49 -32.92024 150.98747 20809 ft 363 kts 176°
2026-05-04 01:49 -32.94578 150.99196 20398 ft 352 kts 175°
2026-05-04 01:49 -32.96982 150.99620 20003 ft 349 kts 175°
2026-05-04 01:50 -32.99381 151.00040 19603 ft 349 kts 175°
2026-05-04 01:50 -33.01781 151.00462 19206 ft 349 kts 175°
2026-05-04 01:50 -33.04183 151.00889 18797 ft 349 kts 174°
2026-05-04 01:50 -33.06590 151.01319 18404 ft 349 kts 174°
2026-05-04 01:51 -33.08964 151.01746 17967 ft 349 kts 174°
2026-05-04 01:51 -33.11360 151.02177 17565 ft 347 kts 174°
2026-05-04 01:51 -33.13747 151.02602 17165 ft 346 kts 174°
2026-05-04 01:51 -33.16119 151.03023 16767 ft 344 kts 174°
2026-05-04 01:52 -33.18481 151.03448 16367 ft 342 kts 174°
2026-05-04 01:52 -33.20839 151.03871 15968 ft 341 kts 174°
2026-05-04 01:52 -33.23183 151.04293 15576 ft 340 kts 174°
2026-05-04 01:52 -33.25524 151.04719 15182 ft 340 kts 173°
2026-05-04 01:53 -33.27851 151.05161 14794 ft 338 kts 173°
2026-05-04 01:53 -33.30175 151.05612 14397 ft 337 kts 173°
2026-05-04 01:53 -33.32463 151.06058 14008 ft 336 kts 173°
2026-05-04 01:53 -33.34772 151.06506 13595 ft 335 kts 173°
2026-05-04 01:54 -33.37069 151.06949 13205 ft 333 kts 173°
2026-05-04 01:54 -33.39347 151.07390 12830 ft 330 kts 173°
2026-05-04 01:54 -33.41607 151.07828 12447 ft 328 kts 173°
2026-05-04 01:54 -33.43856 151.08260 12066 ft 326 kts 173°
2026-05-04 01:55 -33.46098 151.08690 11689 ft 325 kts 173°
2026-05-04 01:55 -33.48329 151.09118 11315 ft 323 kts 173°
2026-05-04 01:55 -33.50538 151.09540 11019 ft 319 kts 173°
2026-05-04 01:55 -33.52738 151.09960 10664 ft 318 kts 172°
2026-05-04 01:56 -33.54924 151.10379 10247 ft 319 kts 172°
2026-05-04 01:56 -33.57078 151.10792 9958 ft 316 kts 172°
2026-05-04 01:56 -33.59245 151.11208 9579 ft 315 kts 172°
2026-05-04 01:56 -33.61402 151.11624 9202 ft 313 kts 173°
2026-05-04 01:57 -33.63551 151.12042 8853 ft 311 kts 172°
2026-05-04 01:57 -33.65673 151.12462 8596 ft 307 kts 172°
2026-05-04 01:57 -33.67780 151.12883 8412 ft 306 kts 172°
2026-05-04 01:57 -33.69884 151.13302 8236 ft 306 kts 172°
2026-05-04 01:58 -33.71983 151.13715 8057 ft 306 kts 172°
2026-05-04 01:58 -33.74058 151.14120 7888 ft 306 kts 172°
2026-05-04 01:58 -33.76157 151.14531 7700 ft 305 kts 172°
2026-05-04 01:58 -33.78229 151.14935 7532 ft 304 kts 172°
2026-05-04 01:59 -33.80319 151.15285 7352 ft 303 kts 179°
2026-05-04 01:59 -33.82407 151.15125 7186 ft 299 kts 194°
2026-05-04 01:59 -33.84424 151.14543 7008 ft 298 kts 197°
2026-05-04 01:59 -33.86439 151.13951 6836 ft 298 kts 196°
2026-05-04 02:00 -33.88457 151.13365 6659 ft 298 kts 196°
2026-05-04 02:00 -33.90471 151.12784 6482 ft 298 kts 196°
2026-05-04 02:00 -33.92487 151.12205 6302 ft 298 kts 196°
2026-05-04 02:00 -33.94498 151.11632 6117 ft 296 kts 196°
2026-05-04 02:01 -33.96509 151.11056 5936 ft 296 kts 197°
2026-05-04 02:01 -33.98511 151.10479 5742 ft 296 kts 197°
2026-05-04 02:01 -34.00506 151.09904 5557 ft 294 kts 197°
2026-05-04 02:01 -34.02501 151.09326 5361 ft 294 kts 197°
2026-05-04 02:02 -34.04479 151.08752 5175 ft 292 kts 197°
2026-05-04 02:02 -34.06455 151.08183 4979 ft 292 kts 195°
2026-05-04 02:02 -34.08459 151.07969 4780 ft 294 kts 179°
2026-05-04 02:02 -34.10486 151.08361 4586 ft 296 kts 170°
2026-05-04 02:03 -34.12495 151.08888 4385 ft 295 kts 170°
2026-05-04 02:03 -34.14494 151.09405 4190 ft 293 kts 170°
2026-05-04 02:03 -34.16490 151.09918 4000 ft 293 kts 170°
2026-05-04 02:03 -34.18483 151.10437 3805 ft 292 kts 170°
2026-05-04 02:04 -34.20418 151.11164 3623 ft 294 kts 150°
2026-05-04 02:04 -34.21834 151.12893 3478 ft 288 kts 114°
2026-05-04 02:04 -34.22225 151.15134 3381 ft 263 kts 76°
2026-05-04 02:04 -34.21593 151.17055 3303 ft 238 kts 49°
2026-05-04 02:05 -34.20606 151.18642 3226 ft 234 kts 44°
2026-05-04 02:05 -34.19568 151.20153 3142 ft 233 kts 43°
2026-05-04 02:05 -34.18503 151.21615 3044 ft 229 kts 34°
2026-05-04 02:05 -34.17172 151.22599 2969 ft 220 kts 13°
2026-05-04 02:06 -34.15698 151.22946 2985 ft 213 kts 354°
2026-05-04 02:06 -34.14318 151.22726 2996 ft 198 kts 343°
2026-05-04 02:06 -34.12988 151.22377 2979 ft 194 kts 343°
2026-05-04 02:06 -34.11662 151.22029 2971 ft 195 kts 343°
2026-05-04 02:07 -34.10335 151.21683 2798 ft 194 kts 344°
2026-05-04 02:07 -34.09011 151.21338 2559 ft 193 kts 344°
2026-05-04 02:07 -34.07744 151.21009 2338 ft 177 kts 345°
2026-05-04 02:07 -34.06597 151.20712 2105 ft 160 kts 345°
2026-05-04 02:08 -34.05882 151.20526 1979 ft 151 kts 345°
2026-05-04 02:08 -34.04976 151.20290 1800 ft 147 kts 344°
2026-05-04 02:08 -34.03986 151.20031 1611 ft 148 kts 346°
2026-05-04 02:08 -34.02983 151.19770 1417 ft 146 kts 347°
2026-05-04 02:09 -34.01991 151.19512 1209 ft 147 kts 345°
2026-05-04 02:09 -34.00993 151.19252 1025 ft 144 kts 349°
2026-05-04 02:09 -34.00003 151.18995 817 ft 145 kts 348°
2026-05-04 02:09 -33.99010 151.18736 605 ft 147 kts 350°
2026-05-04 02:10 -33.98014 151.18478 390 ft 146 kts 348°
2026-05-04 02:10 -33.97028 151.18222 194 ft 144 kts 348°
2026-05-04 02:10 -33.96048 151.17968 36 ft 139 kts 347°
2026-05-04 02:10 -33.95223 151.17752 29 ft 99 kts 348°
2026-05-04 02:11 -33.94703 151.17617 29 ft 62 kts 348°
2026-05-04 02:11 -33.94308 151.17514 30 ft 54 kts 348°
2026-05-04 02:11 -33.93948 151.17419 27 ft 51 kts 347°
2026-05-04 02:11 -33.93615 151.17334 27 ft 48 kts 347°
2026-05-04 02:12 -33.93329 151.17260 29 ft 36 kts 348°
2026-05-04 02:12 -33.93113 151.17204 31 ft 28 kts 348°
2026-05-04 02:12 -33.92981 151.17195 31 ft 15 kts 32°
2026-05-04 02:12 -33.92960 151.17316 31 ft 18 kts 101°
2026-05-04 02:13 -33.92985 151.17471 30 ft 19 kts 101°
2026-05-04 02:13 -33.93012 151.17635 30 ft 21 kts 101°
2026-05-04 02:13 -33.93061 151.17793 30 ft 19 kts 102°
2026-05-04 02:13 -33.93073 151.17871 30 ft 4 kts 99°
2026-05-04 02:14 -33.93079 151.17912 30 ft 6 kts 106°
2026-05-04 02:14 -33.93107 151.17924 30 ft 4 kts 190°
2026-05-04 02:14 -33.93140 151.17916 30 ft 4 kts 191°
2026-05-04 02:14 -33.93152 151.17913 30 ft 1 kts 191°
2026-05-04 02:15 -33.93154 151.17913 30 ft 0 kts 191°